Regional Weather Roundup
Issued by NWS

Home | Current Version | Previous Version | Text Only | Print | Product List | Glossary On
Versions: 1 2 3 4 5 6 7 8 9 10 11 12 13 14 15 16 17 18 19 20 21 22 23 24 25 26 27
000
ASUS44 KJAN 212110
RWRMS

MISSISSIPPI HOURLY WEATHER ROUNDUP
NATIONAL WEATHER SERVICE JACKSON MS
300 PM CST TUE FEB 21 2017

NOTE: "FAIR: INDICATES FEW OR NO CLOUDS BELOW 12,000 FEET WITH NO
SIGNIFICANT WEATHER AND/OR OBSTRUCTIONS TO VISIBILITY.

MSZ001>002-007>008-010>013-018>021-025>028-034>036-212200-
NORTHWEST MISSISSIPPI

CITY           SKY/WX    TMP DP  RH WIND       PRES   REMARKS
BATESVILLE     MOCLDY    64  58  81 S5        29.85S
CLEVELAND      FAIR      67  61  81 MISG      29.83S
GREENWOOD      CLOUDY    66  56  70 S7        29.84F
GREENVILLE     CLOUDY    64  55  72 SW9       29.83F
OLIVE BRANCH   CLOUDY   N/A N/A N/A SE9       29.84F
OXFORD         PTSUNNY   59  57  94 SE3       29.88R
TUNICA         CLOUDY    63  59  88 S6        29.85R
WINONA         MOCLDY    64  57  77 SW5       29.85S
$$

MSZ003>006-009-014>017-022>024-029>033-037>039-212200-
NORTHEAST MISSISSIPPI

CITY           SKY/WX    TMP DP  RH WIND       PRES   REMARKS
COLUMBUS AFB   CLOUDY    61  59  94 SE10      29.88R
CORINTH        DRIZZLE   63  59  88 SE12      29.87S
TUPELO         CLOUDY    62  58  86 SE9       29.88S
$$

MSZ040-058-212200-
CENTRAL MISSISSIPPI

CITY           SKY/WX    TMP DP  RH WIND       PRES   REMARKS
JACKSON INTL   PTSUNNY   68  54  60 NW6       29.83F
JACKSON HAWKNS PTSUNNY   69  55  60 VRB6      29.84F
MADISON          N/A    N/A N/A N/A W3        29.84F
MERIDIAN KEY   CLOUDY    62  60  93 CALM      29.86F
MERIDIAN NAS   LGT RAIN  63  58  83 SE6       29.86F
VICKSBURG VKS  MOCLDY    72  54  53 W7        29.81F
$$

MSZ059>079-212200-
SOUTH MISSISSIPPI

CITY           SKY/WX    TMP DP  RH WIND       PRES   REMARKS
BROOKHAVEN     MOCLDY   N/A N/A N/A N6        29.85F
COLUMBIA       FAIR      72 -35   1 NW8       29.87F
HATTIESBURG    CLOUDY    68  57  68 VRB3      29.86F
LAUREL         CLOUDY    65  58  77 CALM      29.86S
MCCOMB         SUNNY     68  48  48 VRB5      29.84F
NATCHEZ        SUNNY     68  52  56 SW6       29.84F
PINE BELT      PTSUNNY   66  55  68 N5        29.87F
$$

MSZ080>082-212200-
COASTAL MISSISSIPPI

CITY           SKY/WX    TMP DP  RH WIND       PRES   REMARKS
BAY ST LOUIS   PTSUNNY   70  52  52 N6        29.85F
BILOXI         MOSUNNY   68  59  72 CALM      29.85F
PASCAGOULA     CLOUDY    65  59  81 CALM      29.86F
GULFPORT       MOSUNNY   70  57  63 N6        29.85F
$$

LAZ007>009-015>016-023>026-212200-
NORTHEAST LOUISIANA

CITY           SKY/WX    TMP DP  RH WIND       PRES   REMARKS
BASTROP        FAIR      67  55  65 W7        29.84S
TALLULAH/VBURG SUNNY     70  54  56 W5        29.83F
VIDALIA        FAIR      69  55  60 CALM      29.83F
$$




USA.gov is the U.S. government's official web portal to all federal, state and local government web resources and services.